Fryeburg, ME

4:50 AM EDT on March 23, 2017 (GMT -0400)
Eastern Slopes Regional

Weather History for KIZG - July, 2012

Change the Weather History Date:

Wednesday, July 4, 2012

  Actual Average Record
Temperature  
Mean Temperature 70 °F -  
Max Temperature 84 °F 78 °F 98 °F (2002)
Min Temperature 57 °F 53 °F 46 °F (2007)
Cooling Degree Days 6    
Growing Degree Days 20 (Base 50)    
Moisture  
Dew Point 65 °F    
Average Humidity 89    
Maximum Humidity 100    
Minimum Humidity 58    
Precipitation  
Precipitation 0.46 in - - ()
Sea Level Pressure  
Sea Level Pressure 29.74 in    
Wind  
Wind Speed 2 mph (SE)    
Max Wind Speed 10 mph    
Max Gust Speed -    
Visibility 8 miles    
Events Rain , Thunderstorm    
Averages and records for this station are not official NWS values.
T = Trace of Precipitation, MM = Missing Value Source: NWS Daily Summary

Daily Weather History Graph

Daily Weather History Graph

Search for Another Location

Airport or City:

Trip Planner

Search our weather history database for the weather conditions in past years. The results will help you decide how hot, cold, wet, or windy it might be!

Date:

Astronomy

Jul. 04, 2012 Rise Set
Actual Time 5:06 AM EDT 8:29 PM EDT
Civil Twilight 4:30 AM EDT 9:05 PM EDT
Nautical Twilight 3:44 AM EDT 9:52 PM EDT
Astronomical Twilight 2:45 AM EDT 10:50 PM EDT
Moon 9:01 PM EDT (7/4) 6:08 AM EDT (7/4)
Length of Visible Light 16h 34m
Length of Day
15h 22m
Full, 99% of the Moon is Illuminated
Jul 4
Full
Jul 10
Last Quarter
Jul 19
New
Jul 26
First Quarter
Aug 1
Full

Hourly Weather History & Observations

Time (EDT) Temp. Heat Index Dew Point Humidity Pressure Visibility Wind Dir Wind Speed Gust Speed Precip Events Conditions
12:54 AM 59.0 °F - 57.0 °F 93% 29.85 in 10.0 mi Calm Calm - N/A   Clear
1:54 AM 57.9 °F - 57.0 °F 97% 29.84 in 10.0 mi Calm Calm - N/A   Clear
2:54 AM 57.0 °F - 55.9 °F 96% 29.83 in 10.0 mi Calm Calm - N/A   Partly Cloudy
4:54 AM 59.0 °F - 57.0 °F 93% 29.82 in 10.0 mi Calm Calm - 0.01 in Rain Light Rain
5:54 AM 60.1 °F - 57.9 °F 93% 29.81 in 10.0 mi Calm Calm - 0.04 in Rain Light Rain
6:54 AM 60.1 °F - 57.9 °F 93% 29.81 in 10.0 mi West 3.5 mph - 0.00 in Rain Light Rain
7:54 AM 61.0 °F - 59.0 °F 93% 29.80 in 10.0 mi Calm Calm - 0.01 in Rain Light Rain
8:52 AM 60.8 °F - 60.8 °F 100% 29.80 in 1.8 mi SE 3.5 mph - 0.06 in Rain Rain
8:54 AM 61.0 °F - 60.1 °F 97% 29.81 in 1.8 mi SE 4.6 mph - 0.07 in Rain Rain
8:59 AM 60.8 °F - 60.8 °F 100% 29.80 in 3.0 mi SE 3.5 mph - 0.00 in Rain Light Rain
9:54 AM 68.0 °F - 64.0 °F 87% 29.78 in 10.0 mi Calm Calm - 0.00 in   Mostly Cloudy
10:54 AM 72.0 °F - 64.9 °F 78% 29.76 in 10.0 mi West 6.9 mph - N/A   Scattered Clouds
11:54 AM 75.9 °F - 66.9 °F 74% 29.74 in 10.0 mi Variable 3.5 mph - N/A   Partly Cloudy
12:54 PM 79.0 °F - 66.9 °F 66% 29.73 in 10.0 mi NE 4.6 mph - N/A   Scattered Clouds
1:54 PM 82.9 °F 85.4 °F 66.9 °F 58% 29.72 in 10.0 mi East 4.6 mph - N/A   Clear
2:54 PM 82.9 °F 85.4 °F 66.9 °F 58% 29.70 in 10.0 mi Calm Calm - N/A   Clear
3:54 PM 84.0 °F 88.4 °F 70.0 °F 63% 29.69 in 10.0 mi SSE 6.9 mph - N/A   Scattered Clouds
4:27 PM 77.0 °F - 69.8 °F 78% 29.70 in 1.5 mi SE 10.4 mph - 0.16 in Rain Heavy Rain
4:34 PM 75.2 °F - 69.8 °F 83% 29.69 in 1.0 mi ESE 8.1 mph - 0.25 in Rain Heavy Rain
4:38 PM 75.2 °F - 71.6 °F 89% 29.69 in 2.0 mi Calm Calm - 0.25 in Rain Rain
4:46 PM 73.4 °F - 71.6 °F 94% 29.69 in 9.0 mi SSE 4.6 mph - 0.26 in Rain Light Rain
4:54 PM 73.0 °F - 71.1 °F 93% 29.70 in 10.0 mi SSW 3.5 mph - 0.26 in   Mostly Cloudy
5:54 PM 72.0 °F - 71.1 °F 97% 29.70 in 10.0 mi Calm Calm - N/A   Scattered Clouds
6:27 PM 71.6 °F - 69.8 °F 94% 29.70 in 10.0 mi North 3.5 mph - 0.00 in Rain , Thunderstorm Light Thunderstorms and Rain
6:54 PM 72.0 °F - 71.1 °F 97% 29.72 in 5.0 mi NNW 3.5 mph - 0.02 in Rain , Thunderstorm Light Rain
7:42 PM 69.8 °F - 68.0 °F 94% 29.71 in 10.0 mi SE 5.8 mph - 0.00 in   Scattered Clouds
7:54 PM 68.0 °F - 66.0 °F 93% 29.70 in 10.0 mi SSE 5.8 mph - 0.00 in   Partly Cloudy
8:54 PM 66.0 °F - 64.9 °F 96% 29.72 in 10.0 mi Calm Calm - N/A   Clear
9:54 PM 64.9 °F - 64.9 °F 100% 29.72 in 10.0 mi Calm Calm - 0.01 in   Mostly Cloudy
10:12 PM 64.4 °F - 64.4 °F 100% 29.72 in 10.0 mi Calm Calm - N/A Thunderstorm Thunderstorm
10:50 PM 66.2 °F - 64.4 °F 94% 29.71 in 10.0 mi Calm Calm - 0.04 in Rain , Thunderstorm Light Thunderstorms and Rain
10:54 PM 66.0 °F - 66.0 °F 100% 29.70 in 10.0 mi Calm Calm - 0.04 in Thunderstorm Thunderstorm
11:01 PM 66.2 °F - 64.4 °F 94% 29.70 in 10.0 mi Calm Calm - N/A   Overcast
11:54 PM 64.9 °F - 64.9 °F 100% 29.68 in 10.0 mi Calm Calm - N/A   Clear